User: anonymous   Login
Location: Unspecified
(0.0000°N, 0.0000°E)
Time: 16:19:31
(UTC+00:00)
Language:

TET - Orbit

View from above orbital plane
View from above orbital plane
View from above satellite
View from above satellite

Ground track
Ground track

The orbit data is extracted from the following two-line orbital elements,

1 38710U 12039D   21267.73302044  .00010847  00000-0  15784-3 0  9993
2 38710  97.5450 327.0492 0000436   7.7151 352.4109 15.55941656515958
Epoch (UTC): 24 September 2021 17:35:32
Eccentricity: 0.0000436
inclination: 97.5450°
perigee height: 399 km
apogee height: 400 km
right ascension of ascending node: 327.0492°
argument of perigee: 7.7151°
revolutions per day: 15.55941656
mean anomaly at epoch: 352.4109°
orbit number at epoch: 51595

The dashed part of the orbit path shows where the satellite is in the earth's shadow,  

DLR